Showing default

INTELSAT 10 (PAS 10), 26766

Orbit data source: Space-Track

INTELSAT 10 (PAS 10), 26766 is a payload satellite owned by Panamsat (US) in GEO that was launched on Tue, 15 May 2001 UTC via a PROTON-K/DM-2M launch vehicle from the Tyuratam Missile And Space Complex (TTMTR). Payload-class satellites include a variety of spacecraft equipped with specific instruments for various scientific and technological missions. These include communications satellites like Starlink; space stations such as the ISS; scientific satellites like the Hubble; Earth observation satellites from companies like Planet Labs, Umbra, and HawkEye 360; GPS; miniature CubeSats for education and research; and military/defense satellites.

Not visible in the next 10 days
Identifier
26766, 2001-019A
Orbit
GEO
Last TLE update
2 days ago
Origin
Manufacturer
Boeing/ES
Mission
Operational Commercial Communications
Bus & Motor
HS-601HP, R-4D-11-300
Mass
3,772 kg wet, ~2,000 kg dry
Launch date (UTC)
2001-05-15 (24 years ago)
Launch vehicle
PROTON-K/DM-2M
Launch site
Tyuratam Missile And Space Complex (TTMTR)
Object type
Payload
Rocket body
Debris
Shape & HBR
Box + 2 Pan, 26 m
Radar Cross Section
31.072 m², Large (>1 m²)

Expand to show TLE details & history

TLE from 2 days ago
0 INTELSAT 10 (PAS 10)
1 26766U 01019A   25190.82128153 -.00000001  00000-0  00000+0 0  9996
2 26766   8.2513  62.7456 0002959  30.0535 196.9367  1.00271948 88491
Epoch: 2025-07-09T19:42Z
TLE epoch observation values (Epoch: 2025-07-09T19:42:38.724Z)
Latitude
-6.04994°
Longitude
65.77625°
Altitude
35,799.082 km
Speed
3.074 km/s
True Right ascension
19h 17m 44s
True Declination
-6° 02' 38"
Sunlit
Object was in daylight at epoch
Visualization orbit readout
Latitude
7.9946°
Longitude
-55.58768°
Altitude
35,782.081 km
Speed
3.075 km/s
Apparent Right ascension
11h 15m 53s
Apparent Declination
2° 11' 45"
Sunlit
Object is in daylight
Visualization observer readout
Local Sidereal Time
23:46:43
Azimuth
11.401° NNE
Elevation
-47.299°
Doppler factor
1
Orbital elements
Apogee altitude
35,800.064 km
Perigee altitude
35,775.111 km
Semi-major axis
42,165.724 km
Eccentricity
0.0003
Inclination
8.2513°
RAAN
62.7456°
Arg. of periapsis
30.0535°
True anomaly
Unknown
Mean anomaly
196.9367°
Eccentric anomaly
Unknown
Mean motion
0.25067 °/min
Orbital period
1,436.15 mins
BSTAR
0
Loading historical data...
26766 neighbors
Loading maneuver chart data...
Loading SW <> Apogee altitude chart data...
Loading historical data...
Loading historical data...
Loading historical data...
Loading historical data...
Loading historical data...
Loading historical data...
Loading historical data...
Other satellites on launch #19 in the year 2001 (2001-05-15 UTC)

INTELSAT 10 (PAS 10) Visibility

Observer location: undefined°, undefined°

INTELSAT 10 (PAS 10) is likely not visible in the next few days
Span
Click to sort rows by Start time (UTC) header in descending order
Start Az.
Max El. time (UTC)
Max El. Az.
Max El.
End time (UTC)
End Az.
|